This demonstration page uses our WeatherBlox Daily Observations layout. Learn more.

40.92945, -100.16068

Hourly Observations for April 4, 2018

Temp ( °F °C ) Dew Point ( °F °C ) Humidity (%) Winds ( mph kmh ) Pressure ( in mb ) Visibility ( mi km ) Precip ( " mm )
12:15 am 00:15 Clear 21 -6 15 -9.5 77 77 Calm 30.39 1029 10 16.0934 0 0
12:35 am 00:35 Clear 21 -6.1 15 -9.6 77 77 Calm 30.42 1030 10 16.0934 0 0
12:55 am 00:55 Clear 20 -6.7 14 -9.8 79 79 Calm 30.42 1030 10 16.0934 0 0
1:15 am 01:15 Clear 20 -6.5 15 -9.6 79 79 Calm 30.42 1030 10 16.0934 0 0
1:35 am 01:35 Clear 20 -6.6 14 -10.1 76 76 SW 5 7 30.45 1031 10 16.0934 0 0
1:55 am 01:55 Clear 20 -6.9 14 -10 79 79 Calm 30.45 1031 10 16.0934 0 0
2:15 am 02:15 Clear 19 -7.2 14 -10 81 81 WSW 3 6 30.45 1031 10 16.0934 0 0
2:35 am 02:35 Clear 17 -8.1 13 -10.6 82 82 W 5 7 30.45 1031 10 16.0934 0 0
2:55 am 02:55 Clear 18 -7.7 14 -9.9 84 84 Calm 30.42 1030 10 16.0934 0 0
3:15 am 03:15 Clear 18 -8 14 -10.1 85 85 Calm 30.42 1030 10 16.0934 0 0
3:35 am 03:35 Clear 18 -7.7 14 -9.9 84 84 Calm 30.42 1030 10 16.0934 0 0
3:55 am 03:55 Clear 18 -7.8 14 -9.9 85 85 Calm 30.42 1030 10 16.0934 0 0
4:15 am 04:15 Clear 18 -7.6 15 -9.5 86 86 SSW 7 11 30.42 1030 10 16.0934 0 0
4:35 am 04:35 Clear 18 -8 14 -10.2 84 84 Calm 30.42 1030 10 16.0934 0 0
4:55 am 04:55 Clear 17 -8.1 14 -10.1 86 86 E 3 6 30.42 1030 10 16.0934 0 0
5:15 am 05:15 Clear 18 -7.7 14 -10 84 84 SSE 3 6 30.42 1030 10 16.0934 0 0
5:35 am 05:35 Clear 17 -8.2 14 -10.2 86 86 S 3 6 30.42 1030 10 16.0934 0 0
5:55 am 05:55 Clear 17 -8.1 14 -10.1 86 86 S 5 7 30.42 1030 10 16.0934 0 0
6:15 am 06:15 Clear 18 -8 14 -9.9 86 86 S 5 7 30.42 1030 10 16.0934 0 0
6:35 am 06:35 Clear 18 -7.8 14 -10 84 84 SSE 5 7 30.39 1029 10 16.0934 0 0
6:55 am 06:55 Clear 18 -7.9 13 -10.3 83 83 S 5 7 30.42 1030 10 16.0934 0 0
7:15 am 07:15 Clear 19 -7.5 14 -10 83 83 SSE 5 7 30.39 1029 10 16.0934 0 0
7:35 am 07:35 Sunny 19 -7.1 15 -9.7 82 82 SSE 6 9 30.39 1029 10 16.0934 0 0
7:55 am 07:55 Sunny 20 -6.5 15 -9.2 81 81 SSE 6 9 30.39 1029 10 16.0934 0 0
8:15 am 08:15 Sunny 22 -5.7 17 -8.6 80 80 SSE 9 15 30.33 1027 10 16.0934 0 0
8:35 am 08:35 Sunny 23 -5.2 17 -8.5 78 78 S 9 15 30.33 1027 10 16.0934 0 0
8:55 am 08:55 Sunny 24 -4.3 19 -7.4 79 79 S 12 19 30.33 1027 10 16.0934 0 0
9:15 am 09:15 Sunny 26 -3.2 19 -7.4 73 73 SSE 12 19 30.3 1026 10 16.0934 0 0
9:35 am 09:35 Sunny 28 -2.2 20 -6.9 71 71 S 17 28 30.3 1026 10 16.0934 0 0
9:55 am 09:55 Sunny 30 -1 20 -6.8 65 65 SSE 16 26 30.24 1024 10 16.0934 0 0
10:15 am 10:15 Sunny 30 -0.9 19 -7.3 62 62 SSE 17 28 30.24 1024 10 16.0934 0 0
10:35 am 10:35 Sunny 32 -0.1 19 -7.2 59 59 SSE 16 26 30.21 1023 10 16.0934 0 0
10:55 am 10:55 Sunny 33 0.7 20 -6.8 58 58 SSE 16 26 30.21 1023 10 16.0934 0 0
11:15 am 11:15 Sunny 35 1.7 19 -7.2 52 52 SSE 18 30 30.18 1022 10 16.0934 0 0
11:35 am 11:35 Sunny 37 2.5 19 -7 50 50 SSE 20 31 30.18 1022 10 16.0934 0 0
11:55 am 11:55 Sunny 38 3.5 19 -7.4 45 45 S 18 30 30.18 1022 10 16.0934 0 0
12:15 pm 12:15 Sunny 40 4.5 18 -7.6 41 41 S 18 30 30.12 1020 10 16.0934 0 0
12:35 pm 12:35 Sunny 42 5.3 17 -8.3 37 37 S 21 33 30.12 1020 10 16.0934 0 0
12:55 pm 12:55 Sunny 44 6.4 18 -8 35 35 S 23 37 30.12 1020 10 16.0934 0 0
1:15 pm 13:15 Sunny 46 7.7 19 -7.2 34 34 S 25 41 30.06 1018 10 16.0934 0 0
1:40 pm 13:40 Sunny 49 9.7 18 -7.6 29 29 SSW 23 37 30.06 1018 10 16.0934 0 0
1:55 pm 13:55 Sunny 50 10.2 18 -7.8 28 28 S 21 33 30.06 1018 10 16.0934 0 0
2:15 pm 14:15 Sunny 53 11.9 18 -7.7 25 25 S 17 28 30 1016 10 16.0934 0 0
2:35 pm 14:35 Sunny 55 13 18 -7.6 23 23 S 21 33 30 1016 10 16.0934 0 0
2:55 pm 14:55 Sunny 58 14.3 19 -7.3 22 22 S 20 31 29.94 1014 10 16.0934 0 0
3:15 pm 15:15 Sunny 60 15.3 17 -8.3 19 19 SSW 16 26 29.94 1014 10 16.0934 0 0
3:35 pm 15:35 Sunny 62 16.5 15 -9.3 16 16 SSW 14 22 29.88 1012 10 16.0934 0 0
3:55 pm 15:55 Sunny 61 15.9 13 -10.4 15 15 SSW 13 20 29.88 1012 10 16.0934 0 0
4:15 pm 16:15 Sunny 62 16.5 13 -10.6 15 15 SSW 13 20 29.88 1012 10 16.0934 0 0
4:35 pm 16:35 Sunny 63 17 13 -10.8 14 14 WSW 8 13 29.88 1012 10 16.0934 0 0
4:55 pm 16:55 Sunny 65 18.2 13 -10.5 13 13 S 6 9 29.85 1011 10 16.0934 0 0
5:15 pm 17:15 Sunny 64 17.6 12 -11.3 13 13 W 6 9 29.85 1011 10 16.0934 0 0
5:35 pm 17:35 Sunny 64 17.5 12 -11.3 13 13 N 5 7 29.85 1011 10 16.0934 0 0
5:55 pm 17:55 Sunny 62 16.7 16 -9 16 16 E 7 11 29.85 1011 10 16.0934 0 0
6:15 pm 18:15 Sunny 61 16 17 -8.5 18 18 E 7 11 29.85 1011 10 16.0934 0 0
6:35 pm 18:35 Sunny 60 15.5 18 -8 19 19 ESE 9 15 29.88 1012 10 16.0934 0 0
6:55 pm 18:55 Mostly Cloudy 56 13.1 26 -3.3 32 32 NE 8 13 29.88 1012 10 16.0934 0 0
7:15 pm 19:15 Partly Cloudy 55 13 24 -4.3 30 30 E 10 17 29.88 1012 10 16.0934 0 0
7:35 pm 19:35 Partly Cloudy 55 12.5 24 -4.5 31 31 E 9 15 29.88 1012 10 16.0934 0 0
7:55 pm 19:55 Partly Cloudy 55 12.8 21 -5.9 27 27 E 10 17 29.88 1012 10 16.0934 0 0
8:15 pm 20:15 Clear 53 11.5 23 -5.1 31 31 E 8 13 29.91 1013 10 16.0934 0 0
8:35 pm 20:35 Partly Cloudy 53 11.4 22 -5.3 31 31 E 8 13 29.91 1013 10 16.0934 0 0
8:55 pm 20:55 Mostly Cloudy 52 11.1 22 -5.5 31 31 E 9 15 29.91 1013 10 16.0934 0 0
9:15 pm 21:15 Mostly Cloudy 52 11.1 22 -5.7 31 31 ESE 13 20 29.91 1013 10 16.0934 0 0
9:35 pm 21:35 Mostly Cloudy 51 10.7 21 -6.1 30 30 ESE 14 22 29.94 1014 10 16.0934 0 0
9:55 pm 21:55 Mostly Cloudy 49 9.7 21 -6 33 33 ESE 12 19 29.94 1014 10 16.0934 0 0
10:15 pm 22:15 Partly Cloudy 47 8.4 22 -5.7 37 37 ESE 9 15 29.97 1015 10 16.0934 0 0
10:35 pm 22:35 Partly Cloudy 45 7.3 23 -5.1 41 41 ESE 9 15 29.97 1015 10 16.0934 0 0
10:55 pm 22:55 Clear 44 6.5 23 -4.8 45 45 ESE 10 17 29.97 1015 10 16.0934 0 0
11:15 pm 23:15 Clear 43 5.9 23 -4.8 47 47 E 8 13 30 1016 10 16.0934 0 0
11:35 pm 23:35 Partly Cloudy 39 4.1 24 -4.6 54 54 E 6 9 30.03 1017 10 16.0934 0 0
11:55 pm 23:55 Mostly Cloudy 37 2.6 25 -4.1 62 62 NE 6 9 30.06 1018 10 16.0934 0 0

Powered by AerisWeather